#timestamp,LO_Frequency,Hit,StdDev 
1542999615.9,286047000.3,N
1542999635.7,286046998.9,N
1542999655.6,286046998.1,N
1542999675.4,286047000.3,N
1542999695.2,286046998.1,N
1542999715.1,286047000.7,N
1542999716.0,286047000.7,N
1542999735.8,286046998.1,N
1542999755.6,286047000.8,N
1542999775.5,286046998.4,N
1542999795.3,286046998.3,N
1542999815.2,286047000.0,N
1542999835.9,286046998.1,N
1542999855.7,286047002.4,N
1542999875.6,286047000.9,N
1542999895.4,286046998.5,N
1542999915.2,286046996.5,N
1542999935.1,286046998.5,N
1542999936.0,286046998.5,N
1542999955.8,286046999.2,N
1542999975.7,286046998.5,N
1542999995.5,286046999.4,N
1543000015.3,286046999.3,N
1543000035.2,286046999.3,N
1543000055.0,286047001.2,N
1543000055.9,286047001.2,N
1543000075.8,286046998.3,N
1543000095.6,286046999.0,N
1543000115.4,286046999.5,N
1543000135.3,286046997.4,N
1543000155.1,286046994.9,Y
1543000175.8,286046996.7,P
1543000195.7,286046996.7,N
1543000215.5,286046999.5,N
1543000235.4,286046997.0,N
1543000255.2,286046998.8,N
1543000275.0,286046997.7,N
1543000275.9,286046997.7,N
1543000325.8,286046997.8,E
1543000335.7,286046999.5,N
1543000355.6,286046999.4,P
1543000375.4,286046998.4,P
1543000395.2,286047000.7,N
1543000415.1,286047000.9,N
1543000416.0,286047000.9,N
1543000435.8,286046998.1,N
1543000455.6,286046999.4,N
1543000475.5,286046998.4,N
1543000495.3,286046998.7,N
1543000515.2,286046999.9,N
1543000535.9,286046998.5,N
1543000555.7,286046999.0,N
1543000575.6,286046999.0,N
1543000595.4,286046996.6,Y
1543000615.2,286046999.5,P
1543000635.1,286046997.3,P
1543000636.0,286046997.3,N
1543000655.8,286046996.6,Y
1543000675.7,286047000.9,P
1543000695.5,286047001.0,N
1543000715.3,286047000.8,N
1543000735.2,286046998.7,N
1543000755.0,286046998.1,N
1543000755.9,286046998.1,N
1543000775.8,286046999.4,N
1543000795.6,286046998.8,N
1543000815.4,286047000.8,N
1543000835.3,286046998.7,N
1543000855.1,286047000.4,N
1543000875.8,286047000.3,N
1543000895.7,286047001.0,N
1543000915.5,286047000.8,N
1543000935.4,286047000.0,N
1543000955.2,286046999.9,N
1543000975.0,286046998.3,N
1543000975.9,286046998.3,N
1543000995.8,286047000.7,N
1543001015.6,286047002.3,N
1543001035.4,286047000.0,N
1543001055.3,286047000.0,N
1543001075.1,286046998.8,N
1543001095.9,286046999.6,N
1543001115.7,286046996.5,Y
1543001135.5,286046998.8,P
1543001155.4,286046998.8,N
1543001175.2,286046998.2,P
1543001195.1,286046998.7,N
1543001196.0,286046998.7,N
1543001215.8,286047000.9,N
1543001235.6,286047001.0,N
1543001255.5,286047000.4,N
1543001275.3,286047000.7,N
1543001295.2,286046999.8,N
1543001315.9,286047002.2,N
1543001335.7,286047002.8,N
1543001355.6,286046999.9,N
1543001375.4,286047000.1,N
1543001395.2,286046999.9,N
1543001415.1,286047000.3,N
1543001416.0,286047000.3,N
1543001435.8,286047000.4,N
1543001455.7,286047000.9,N
1543001475.5,286047002.6,N
1543001495.3,286047001.9,N
1543001515.2,286047002.1,N
1543001535.0,286047001.7,N
1543001535.9,286047001.7,N
1543001555.7,286047004.2,Y
1543001575.6,286047003.2,P
1543001595.4,286047003.5,N
1543001615.3,286047003.1,N
1543001635.1,286047004.2,Y
1543001655.8,286046998.1,P
1543001675.7,286046998.2,N
1543001695.5,286047000.5,N
1543001715.4,286047002.2,N
1543001735.2,286046999.9,N
1543001755.0,286047003.9,N
1543001755.9,286047003.9,N
1543001775.8,286047004.2,N
1543001795.6,286047001.9,N
1543001815.4,286047004.3,N
1543001835.3,286047004.3,N
1543001855.1,286047004.3,N
1543001875.9,286047003.1,N
1543001895.7,286047003.3,N
1543001915.5,286047003.4,N
1543001935.4,286047005.8,N
1543001955.2,286047005.5,N
1543001975.0,286047004.8,N
1543001975.9,286047004.8,N
1543001995.8,286047003.4,N
1543002015.6,286047004.9,N
1543002035.5,286047007.1,Y
1543002055.3,286047001.7,P
1543002075.1,286047002.5,P
1543002095.9,286047001.9,P
1543002115.7,286047003.7,Y
1543002135.6,286047001.5,P
1543002155.4,286047001.3,P
1543002175.2,286047001.7,P
1543002195.1,286047003.5,Y
1543002196.0,286047003.5,P
1543002215.8,286047002.4,N
1543002235.6,286047000.9,N
1543002255.5,286047002.4,N
1543002275.3,286047002.7,Y
1543002295.2,286046998.3,P
1543002315.9,286046998.4,N
1543002335.7,286047000.0,N
1543002355.6,286047002.1,N
1543002375.4,286047002.6,N
1543002395.3,286047001.7,N
1543002415.1,286047004.1,N
1543002416.0,286047004.1,N
1543002435.8,286047001.5,N
1543002455.7,286047002.6,N
1543002475.5,286047004.4,N
1543002495.3,286047005.2,N
1543002515.2,286047005.3,N
1543002535.0,286047005.0,N
1543002535.9,286047005.0,N
1543002555.8,286047005.4,N
1543002575.6,286047005.9,N
1543002595.4,286047005.2,N
1543002615.3,286047007.2,Y
1543002635.1,286047002.5,P
1543002655.8,286047001.3,P
1543002675.7,286047002.5,P
1543002695.5,286047001.7,N
1543002715.4,286047004.1,Y
1543002735.2,286047003.5,P
1543002755.0,286047004.0,P
1543002755.9,286047004.0,P
1543002775.8,286047004.2,Y
1543002795.6,286047002.6,P
1543002815.5,286047002.5,P
1543002835.3,286047001.9,P
1543002855.1,286047002.0,Y
1543002875.9,286046999.1,P
1543002895.7,286046998.7,N
1543002915.6,286046998.3,N
1543002935.4,286046998.3,N
1543002955.2,286047001.1,N
1543002975.1,286047002.7,N
1543002976.0,286047002.7,N
1543002995.8,286047002.4,N
1543003015.6,286047002.4,N
1543003035.5,286046999.7,N
1543003055.3,286047002.2,N
1543003075.2,286047002.0,N
1543003095.9,286047003.8,N
1543003115.7,286047004.1,N
1543003135.6,286047001.8,N
1543003155.4,286047003.2,N
1543003175.2,286047003.2,N
1543003195.1,286047005.4,N
1543003196.0,286047005.4,N
